^^
Saratoga-Weather Station Historical Data
Daily Summary for August 21, 2021 Units:  Metric    English   Both
Daily Weekly Monthly Yearly Custom
  High: Low: Average:
Temperature: 17.3 °C 10.1 °C 13.7 °C
Dew Point: 8.9 °C 5.9 °C 7.5 °C
Humidity: 90% 48% 67%
Wind Speed: 27.4km/h 0km/h 5.8km/h
Wind Gust: 30.6km/h - -
Wind- - WSW
Pressure: 1013.2 hPa 1003.7 hPa -
Precipitation: 2.8 mm    
Historical Graphs
 
 
Tabular Data for August 21, 2021
Time Temperature Dew Point Pressure Wind Wind Speed Wind Gust Humidity Rainfall Rate (Hourly) solar
00:02 13.6 °C 7.4 °C 1013.2 hPa NNE 1.4 km/h 3.2 km/h 66% 0.0 mm 0 W/m2
00:07 13.6 °C 7.4 °C 1012.9 hPa NNE 3.2 km/h 6.4 km/h 66% 0.0 mm 0 W/m2
00:12 13.5 °C 7.5 °C 1012.9 hPa NE 1.4 km/h 8 km/h 67% 0.0 mm 0 W/m2
00:17 13.4 °C 7.4 °C 1012.9 hPa NNE 3.2 km/h 6.4 km/h 67% 0.0 mm 0 W/m2
00:22 13.3 °C 7.3 °C 1012.9 hPa NNE 1.4 km/h 6.4 km/h 67% 0.0 mm 0 W/m2
00:27 13.3 °C 7.3 °C 1012.9 hPa NNW 4.7 km/h 4.8 km/h 67% 0.0 mm 0 W/m2
00:32 13.2 °C 7.2 °C 1012.5 hPa SSW 1.4 km/h 6.4 km/h 67% 0.0 mm 0 W/m2
00:37 13.2 °C 7 °C 1012.5 hPa Calm   8 km/h 66% 0.0 mm 0 W/m2
00:42 13.2 °C 7.2 °C 1012.5 hPa WNW 1.4 km/h 4.8 km/h 67% 0.0 mm 0 W/m2
00:47 13.2 °C 7 °C 1012.5 hPa NW 1.4 km/h 8 km/h 66% 0.0 mm 0 W/m2
00:52 13.2 °C 7 °C 1012.5 hPa East 1.4 km/h 6.4 km/h 66% 0.0 mm 0 W/m2
00:57 13.2 °C 7 °C 1012.5 hPa SW 1.4 km/h 8 km/h 66% 0.0 mm 0 W/m2
01:02 13.2 °C 7 °C 1012.2 hPa North 9.7 km/h 9.7 km/h 66% 0.0 mm 0 W/m2
01:07 13.2 °C 7 °C 1012.2 hPa NE 1.4 km/h 4.8 km/h 66% 0.0 mm 0 W/m2
01:12 13.2 °C 7 °C 1011.9 hPa North 1.4 km/h 8 km/h 66% 0.0 mm 0 W/m2
01:17 13.2 °C 6.8 °C 1011.9 hPa North 4.7 km/h 12.9 km/h 65% 0.0 mm 0 W/m2
01:22 13.2 °C 7 °C 1011.9 hPa North 6.4 km/h 8 km/h 66% 0.0 mm 0 W/m2
01:27 13.2 °C 7 °C 1011.9 hPa NNW 3.2 km/h 6.4 km/h 66% 0.0 mm 0 W/m2
01:32 13.1 °C 6.9 °C 1011.9 hPa NW 1.4 km/h 6.4 km/h 66% 0.0 mm 0 W/m2
01:37 12.9 °C 6.7 °C 1011.5 hPa NW 1.4 km/h 4.8 km/h 66% 0.0 mm 0 W/m2
01:42 12.9 °C 6.7 °C 1011.9 hPa Calm   6.4 km/h 66% 0.0 mm 0 W/m2
01:47 12.8 °C 6.8 °C 1011.5 hPa NNE 1.4 km/h 6.4 km/h 67% 0.0 mm 0 W/m2
01:52 12.8 °C 6.8 °C 1011.5 hPa NE 4.7 km/h 6.4 km/h 67% 0.0 mm 0 W/m2
01:57 12.7 °C 6.7 °C 1011.5 hPa Calm   4.8 km/h 67% 0.0 mm 0 W/m2
02:02 12.7 °C 6.7 °C 1011.5 hPa West 1.4 km/h 8 km/h 67% 0.0 mm 0 W/m2
02:07 12.6 °C 6.8 °C 1011.5 hPa NW 3.2 km/h 8 km/h 68% 0.0 mm 0 W/m2
02:12 12.6 °C 6.8 °C 1011.5 hPa NNE 3.2 km/h 14.5 km/h 68% 0.0 mm 0 W/m2
02:17 12.5 °C 6.8 °C 1011.2 hPa NW 1.4 km/h 11.3 km/h 68% 0.0 mm 0 W/m2
02:22 12.5 °C 6.8 °C 1011.2 hPa NNW 1.4 km/h 4.8 km/h 68% 0.0 mm 0 W/m2
02:27 12.4 °C 6.7 °C 1011.2 hPa NNW 1.4 km/h 11.3 km/h 68% 0.0 mm 0 W/m2
02:32 12.4 °C 6.7 °C 1011.2 hPa SSW 1.4 km/h 6.4 km/h 68% 0.0 mm 0 W/m2
02:37 12.3 °C 6.8 °C 1011.2 hPa WNW 4.7 km/h 6.4 km/h 69% 0.0 mm 0 W/m2
02:42 12.3 °C 6.8 °C 1010.8 hPa North 1.4 km/h 3.2 km/h 69% 0.0 mm 0 W/m2
02:47 12.2 °C 6.7 °C 1010.8 hPa Calm   6.4 km/h 69% 0.0 mm 0 W/m2
02:52 12.1 °C 6.8 °C 1010.8 hPa NNW 1.4 km/h 3.2 km/h 70% 0.0 mm 0 W/m2
02:57 12 °C 6.7 °C 1010.8 hPa NNE 1.4 km/h 3.2 km/h 70% 0.0 mm 0 W/m2
03:02 11.9 °C 6.8 °C 1010.8 hPa ENE 6.4 km/h 8 km/h 71% 0.0 mm 0 W/m2
03:07 11.9 °C 7 °C 1010.5 hPa NE 6.4 km/h 6.4 km/h 72% 0.0 mm 0 W/m2
03:12 11.9 °C 6.8 °C 1010.5 hPa NNE 4.7 km/h 4.8 km/h 71% 0.0 mm 0 W/m2
03:17 11.8 °C 6.7 °C 1010.5 hPa NNE 1.4 km/h 4.8 km/h 71% 0.0 mm 0 W/m2
03:22 11.8 °C 6.9 °C 1010.5 hPa Calm   3.2 km/h 72% 0.0 mm 0 W/m2
03:27 11.6 °C 6.7 °C 1010.5 hPa NE 3.2 km/h 4.8 km/h 72% 0.0 mm 0 W/m2
03:32 11.6 °C 6.7 °C 1010.2 hPa East 1.4 km/h 3.2 km/h 72% 0.0 mm 0 W/m2
03:37 11.6 °C 6.9 °C 1010.2 hPa NE 1.4 km/h 3.2 km/h 73% 0.0 mm 0 W/m2
03:42 11.6 °C 6.9 °C 1010.2 hPa ENE 6.4 km/h 6.4 km/h 73% 0.0 mm 0 W/m2
03:47 11.6 °C 6.9 °C 1010.2 hPa NE 4.7 km/h 4.8 km/h 73% 0.0 mm 0 W/m2
03:52 11.7 °C 7 °C 1010.2 hPa ESE 1.4 km/h 3.2 km/h 73% 0.0 mm 0 W/m2
03:57 11.7 °C 6.8 °C 1009.8 hPa SE 1.4 km/h 3.2 km/h 72% 0.0 mm 0 W/m2
04:02 11.7 °C 6.8 °C 1009.8 hPa ENE 3.2 km/h 4.8 km/h 72% 0.0 mm 0 W/m2
04:07 11.8 °C 6.9 °C 1009.8 hPa NNE 3.2 km/h 8 km/h 72% 0.0 mm 0 W/m2
04:12 11.8 °C 6.9 °C 1009.8 hPa North 3.2 km/h 3.2 km/h 72% 0.0 mm 0 W/m2
04:17 11.8 °C 6.9 °C 1009.8 hPa East 3.2 km/h 4.8 km/h 72% 0.0 mm 0 W/m2
04:22 11.8 °C 6.9 °C 1009.5 hPa NE 6.4 km/h 6.4 km/h 72% 0.0 mm 0 W/m2
04:27 11.7 °C 7 °C 1009.5 hPa East 1.4 km/h 4.8 km/h 73% 0.0 mm 0 W/m2
04:32 11.7 °C 7 °C 1009.5 hPa East 3.2 km/h 6.4 km/h 73% 0.0 mm 0 W/m2
04:37 11.6 °C 7.1 °C 1009.5 hPa Calm   1.6 km/h 74% 0.0 mm 0 W/m2
04:42 11.6 °C 7.3 °C 1009.1 hPa Calm   6.4 km/h 75% 0.0 mm 0 W/m2
04:47 11.4 °C 6.9 °C 1009.1 hPa Calm   3.2 km/h 74% 0.0 mm 0 W/m2
04:52 11.3 °C 7 °C 1009.1 hPa Calm   1.6 km/h 75% 0.0 mm 0 W/m2
04:57 11.2 °C 6.9 °C 1009.1 hPa NNW 1.4 km/h 3.2 km/h 75% 0.0 mm 0 W/m2
05:03 11.3 °C 6.8 °C 1009.1 hPa NNW 3.2 km/h 6.4 km/h 74% 0.0 mm 0 W/m2
05:08 11.6 °C 6.9 °C 1009.1 hPa NNE 4.7 km/h 4.8 km/h 73% 0.0 mm 0 W/m2
05:13 11.7 °C 7 °C 1009.1 hPa WNW 1.4 km/h 8 km/h 73% 0.0 mm 0 W/m2
05:18 11.8 °C 6.9 °C 1008.8 hPa South 1.4 km/h 11.3 km/h 72% 0.0 mm 0 W/m2
05:23 11.7 °C 7 °C 1008.8 hPa North 3.2 km/h 8 km/h 73% 0.0 mm 0 W/m2
05:28 11.7 °C 7 °C 1008.8 hPa NNW 1.4 km/h 11.3 km/h 73% 0.0 mm 0 W/m2
05:33 11.7 °C 7 °C 1008.8 hPa East 1.4 km/h 4.8 km/h 73% 0.0 mm 0 W/m2
05:38 11.7 °C 6.8 °C 1008.8 hPa Calm   8 km/h 72% 0.0 mm 0 W/m2
05:43 11.8 °C 6.9 °C 1008.8 hPa WSW 9.7 km/h 9.7 km/h 72% 0.0 mm 0 W/m2
05:48 11.8 °C 6.9 °C 1008.5 hPa WSW 4.7 km/h 6.4 km/h 72% 0.0 mm 0 W/m2
05:53 11.8 °C 6.9 °C 1008.5 hPa NW 4.7 km/h 9.7 km/h 72% 0.0 mm 0 W/m2
05:58 11.8 °C 6.9 °C 1008.5 hPa North 1.4 km/h 4.8 km/h 72% 0.0 mm 5 W/m2
06:03 11.8 °C 6.9 °C 1008.5 hPa NE 1.4 km/h 3.2 km/h 72% 0.0 mm 12 W/m2
06:08 11.8 °C 6.9 °C 1008.5 hPa Calm   8 km/h 72% 0.0 mm 16 W/m2
06:13 11.8 °C 6.9 °C 1008.5 hPa NNW 1.4 km/h 3.2 km/h 72% 0.0 mm 16 W/m2
06:18 11.8 °C 6.9 °C 1008.5 hPa Calm   14.5 km/h 72% 0.0 mm 18 W/m2
06:23 11.9 °C 7 °C 1008.5 hPa WSW 1.4 km/h 3.2 km/h 72% 0.0 mm 21 W/m2
06:28 11.9 °C 6.8 °C 1008.5 hPa Calm   6.4 km/h 71% 0.0 mm 23 W/m2
06:33 12 °C 6.9 °C 1008.5 hPa WNW 1.4 km/h 4.8 km/h 71% 0.0 mm 16 W/m2
06:38 12.1 °C 7.2 °C 1008.5 hPa Calm   8 km/h 72% 0.0 mm 23 W/m2
06:43 12.2 °C 7.1 °C 1008.5 hPa NW 1.4 km/h 6.4 km/h 71% 0.0 mm 21 W/m2
06:48 12.2 °C 7.1 °C 1008.5 hPa NNW 7.9 km/h 8 km/h 71% 0.0 mm 32 W/m2
06:53 12.3 °C 7.2 °C 1008.1 hPa NNW 7.9 km/h 9.7 km/h 71% 0.0 mm 35 W/m2
06:58 12.3 °C 7.2 °C 1008.1 hPa NW 6.4 km/h 8 km/h 71% 0.0 mm 49 W/m2
07:03 12.3 °C 7.2 °C 1008.1 hPa WSW 4.7 km/h 12.9 km/h 71% 0.0 mm 51 W/m2
07:08 12.3 °C 7.4 °C 1008.1 hPa North 6.4 km/h 11.3 km/h 72% 0.0 mm 62 W/m2
07:13 12.3 °C 7.6 °C 1008.1 hPa West 6.4 km/h 6.4 km/h 73% 0.0 mm 60 W/m2
07:18 12.3 °C 7.6 °C 1007.8 hPa NW 4.7 km/h 8 km/h 73% 0.0 mm 77 W/m2
07:23 12.3 °C 7.6 °C 1008.1 hPa WNW 3.2 km/h 8 km/h 73% 0.0 mm 84 W/m2
07:28 12.4 °C 7.9 °C 1008.1 hPa West 6.4 km/h 12.9 km/h 74% 0.0 mm 67 W/m2
07:33 12.4 °C 7.9 °C 1008.1 hPa NNE 3.2 km/h 8 km/h 74% 0.0 mm 97 W/m2
07:38 12.5 °C 8.2 °C 1008.1 hPa NNW 3.2 km/h 12.9 km/h 75% 0.0 mm 74 W/m2
07:43 12.5 °C 8.4 °C 1008.1 hPa West 3.2 km/h 11.3 km/h 76% 0.0 mm 109 W/m2
07:48 12.5 °C 8.6 °C 1008.1 hPa West 3.2 km/h 12.9 km/h 77% 0.0 mm 114 W/m2
07:53 12.5 °C 8.4 °C 1008.5 hPa West 3.2 km/h 9.7 km/h 76% 0.0 mm 111 W/m2
07:58 12.6 °C 8.5 °C 1008.5 hPa SE 1.4 km/h 14.5 km/h 76% 0.0 mm 114 W/m2
08:03 12.6 °C 8.5 °C 1008.1 hPa NNW 13 km/h 12.9 km/h 76% 0.0 mm 107 W/m2
08:08 12.5 °C 8.2 °C 1008.5 hPa NNW 6.4 km/h 14.5 km/h 75% 0.0 mm 113 W/m2
08:13 12.4 °C 8.1 °C 1008.5 hPa North 7.9 km/h 12.9 km/h 75% 0.0 mm 120 W/m2
08:18 12.4 °C 7.9 °C 1008.5 hPa West 3.2 km/h 19.3 km/h 74% 0.0 mm 123 W/m2
08:23 12.4 °C 7.9 °C 1008.5 hPa NW 3.2 km/h 14.5 km/h 74% 0.0 mm 114 W/m2
08:28 12.4 °C 7.9 °C 1008.5 hPa WNW 24.1 km/h 24.1 km/h 74% 0.0 mm 113 W/m2
08:33 12.3 °C 7.8 °C 1008.5 hPa WNW 11.1 km/h 27.4 km/h 74% 0.0 mm 139 W/m2
08:38 12.3 °C 7.8 °C 1008.5 hPa NNW 6.4 km/h 19.3 km/h 74% 0.0 mm 142 W/m2
08:43 12.3 °C 7.8 °C 1008.1 hPa NW 9.7 km/h 27.4 km/h 74% 0.0 mm 128 W/m2
08:48 12.3 °C 8 °C 1008.1 hPa WNW 11.1 km/h 14.5 km/h 75% 0.0 mm 134 W/m2
08:53 12.3 °C 8 °C 1008.1 hPa WNW 1.4 km/h 24.1 km/h 75% 0.0 mm 118 W/m2
08:58 12.3 °C 8 °C 1008.1 hPa NW 6.4 km/h 14.5 km/h 75% 0.0 mm 151 W/m2
09:03 12.3 °C 8.2 °C 1008.5 hPa WNW 3.2 km/h 8 km/h 76% 0.0 mm 120 W/m2
09:08 12.3 °C 8.2 °C 1008.5 hPa West 6.4 km/h 14.5 km/h 76% 0.0 mm 153 W/m2
09:13 12.3 °C 8.2 °C 1008.8 hPa WNW 3.2 km/h 11.3 km/h 76% 0.0 mm 142 W/m2
09:18 12.4 °C 8.3 °C 1008.5 hPa East 1.4 km/h 6.4 km/h 76% 0.0 mm 174 W/m2
09:23 12.5 °C 8.4 °C 1008.5 hPa SW 7.9 km/h 17.7 km/h 76% 0.0 mm 202 W/m2
09:28 12.6 °C 8.5 °C 1008.5 hPa WNW 7.9 km/h 11.3 km/h 76% 0.0 mm 230 W/m2
09:33 12.7 °C 8.4 °C 1008.5 hPa North 7.9 km/h 12.9 km/h 75% 0.0 mm 299 W/m2
09:38 12.8 °C 8.5 °C 1008.5 hPa NW 1.4 km/h 17.7 km/h 75% 0.0 mm 200 W/m2
09:43 12.9 °C 8.6 °C 1008.8 hPa NW 3.2 km/h 11.3 km/h 75% 0.0 mm 287 W/m2
09:48 13 °C 8.5 °C 1008.5 hPa SW 6.4 km/h 19.3 km/h 74% 0.0 mm 271 W/m2
09:53 13 °C 8.5 °C 1008.8 hPa WSW 6.4 km/h 14.5 km/h 74% 0.0 mm 223 W/m2
09:58 13 °C 8.5 °C 1008.5 hPa NW 3.2 km/h 17.7 km/h 74% 0.0 mm 213 W/m2
10:03 13 °C 8.5 °C 1008.5 hPa WSW 6.4 km/h 16.1 km/h 74% 0.0 mm 258 W/m2
10:08 13.1 °C 8.6 °C 1008.5 hPa WSW 4.7 km/h 17.7 km/h 74% 0.0 mm 427 W/m2
10:13 13.2 °C 8.5 °C 1008.5 hPa North 4.7 km/h 12.9 km/h 73% 0.0 mm 348 W/m2
10:18 13.4 °C 8.2 °C 1008.5 hPa SSW 11.1 km/h 22.5 km/h 71% 0.0 mm 301 W/m2
10:23 13.4 °C 7.6 °C 1008.5 hPa NNW 6.4 km/h 19.3 km/h 68% 0.0 mm 431 W/m2
10:28 13.4 °C 7.4 °C 1008.5 hPa West 19.5 km/h 27.4 km/h 67% 0.0 mm 253 W/m2
10:33 13.3 °C 7.3 °C 1008.1 hPa NNW 9.7 km/h 22.5 km/h 67% 0.0 mm 257 W/m2
10:38 13.4 °C 7.4 °C 1008.5 hPa NW 6.4 km/h 14.5 km/h 67% 0.0 mm 334 W/m2
10:43 13.6 °C 7.6 °C 1008.5 hPa WNW 17.7 km/h 19.3 km/h 67% 0.0 mm 396 W/m2
10:48 13.9 °C 7.7 °C 1008.5 hPa SW 9.7 km/h 29 km/h 66% 0.0 mm 584 W/m2
10:53 13.9 °C 7.2 °C 1008.5 hPa SW 9.7 km/h 22.5 km/h 64% 0.0 mm 624 W/m2
10:58 14.1 °C 7.6 °C 1008.5 hPa WNW 9.7 km/h 29 km/h 65% 0.0 mm 424 W/m2
11:03 14 °C 7.5 °C 1008.5 hPa NNW 7.9 km/h 16.1 km/h 65% 0.0 mm 385 W/m2
11:08 13.9 °C 7.7 °C 1008.1 hPa West 9.7 km/h 17.7 km/h 66% 0.0 mm 387 W/m2
11:13 14.1 °C 7.8 °C 1008.1 hPa North 13 km/h 19.3 km/h 66% 0.0 mm 476 W/m2
11:18 14.1 °C 7.8 °C 1008.1 hPa WSW 7.9 km/h 27.4 km/h 66% 0.0 mm 381 W/m2
11:23 13.9 °C 7.7 °C 1008.1 hPa WNW 14.3 km/h 19.3 km/h 66% 0.0 mm 526 W/m2
11:28 14.1 °C 7.8 °C 1008.1 hPa NW 16.3 km/h 22.5 km/h 66% 0.0 mm 650 W/m2
11:33 14.2 °C 7.9 °C 1008.5 hPa West 11.1 km/h 27.4 km/h 66% 0.0 mm 422 W/m2
11:38 14.3 °C 8 °C 1008.5 hPa WNW 16.3 km/h 22.5 km/h 66% 0.0 mm 856 W/m2
11:43 14.4 °C 8.1 °C 1008.5 hPa NW 22.7 km/h 30.6 km/h 66% 0.0 mm 461 W/m2
11:48 14.2 °C 7.9 °C 1008.5 hPa NW 16.3 km/h 16.1 km/h 66% 0.0 mm 359 W/m2
11:53 14.2 °C 7.9 °C 1008.5 hPa NNW 7.9 km/h 17.7 km/h 66% 0.0 mm 380 W/m2
11:58 14.2 °C 8.2 °C 1008.5 hPa WSW 6.4 km/h 17.7 km/h 67% 0.0 mm 360 W/m2
12:03 14.1 °C 8.1 °C 1008.5 hPa WNW 6.4 km/h 16.1 km/h 67% 0.0 mm 352 W/m2
12:08 14.1 °C 8.3 °C 1008.5 hPa WNW 13 km/h 16.1 km/h 68% 0.0 mm 417 W/m2
12:13 14 °C 8.2 °C 1008.5 hPa WNW 11.1 km/h 16.1 km/h 68% 0.0 mm 394 W/m2
12:18 14.1 °C 8.3 °C 1008.5 hPa WSW 13 km/h 19.3 km/h 68% 0.0 mm 352 W/m2
12:23 14.1 °C 8.3 °C 1008.5 hPa NW 6.4 km/h 22.5 km/h 68% 0.0 mm 436 W/m2
12:28 14.1 °C 8.1 °C 1008.5 hPa NW 7.9 km/h 11.3 km/h 67% 0.0 mm 209 W/m2
12:33 14.2 °C 8.2 °C 1008.5 hPa WSW 14.3 km/h 17.7 km/h 67% 0.0 mm 373 W/m2
12:38 14.2 °C 8.2 °C 1008.5 hPa NNW 7.9 km/h 22.5 km/h 67% 0.0 mm 360 W/m2
12:43 14.3 °C 7.4 °C 1008.5 hPa SSE 17.7 km/h 27.4 km/h 63% 0.0 mm 445 W/m2
12:48 14.3 °C 7.4 °C 1008.8 hPa SSW 6.4 km/h 14.5 km/h 63% 0.0 mm 476 W/m2
12:53 14.4 °C 7 °C 1008.8 hPa SSE 7.9 km/h 25.7 km/h 61% 0.0 mm 394 W/m2
12:58 14.5 °C 7.1 °C 1008.5 hPa West 9.7 km/h 20.9 km/h 61% 0.0 mm 499 W/m2
13:03 14.6 °C 7.4 °C 1008.8 hPa South 16.3 km/h 25.7 km/h 62% 0.0 mm 452 W/m2
13:08 14.6 °C 7.4 °C 1008.5 hPa WNW 27.4 km/h 27.4 km/h 62% 0.0 mm 394 W/m2
13:13 14.6 °C 7.4 °C 1008.5 hPa West 16.3 km/h 19.3 km/h 62% 0.0 mm 364 W/m2
13:19 14.7 °C 7.3 °C 1008.5 hPa East 11.1 km/h 17.7 km/h 61% 0.0 mm 364 W/m2
13:24 14.8 °C 7.1 °C 1008.8 hPa NW 11.1 km/h 16.1 km/h 60% 0.0 mm 1208 W/m2
13:29 14.8 °C 6.6 °C 1008.5 hPa NNW 3.2 km/h 19.3 km/h 58% 0.0 mm 657 W/m2
13:34 15 °C 6.8 °C 1008.8 hPa NW 7.9 km/h 11.3 km/h 58% 0.0 mm 450 W/m2
13:39 14.9 °C 6.7 °C 1008.5 hPa West 13 km/h 25.7 km/h 58% 0.0 mm 457 W/m2
13:44 14.9 °C 6.7 °C 1008.5 hPa North 4.7 km/h 14.5 km/h 58% 0.0 mm 432 W/m2
13:49 15 °C 7.3 °C 1008.5 hPa North 1.4 km/h 14.5 km/h 60% 0.0 mm 452 W/m2
13:54 15 °C 7.1 °C 1008.5 hPa WNW 14.3 km/h 22.5 km/h 59% 0.0 mm 329 W/m2
13:59 14.8 °C 7.1 °C 1008.5 hPa West 6.4 km/h 25.7 km/h 60% 0.0 mm 301 W/m2
14:04 14.6 °C 7.4 °C 1008.5 hPa NW 14.3 km/h 22.5 km/h 62% 0.0 mm 325 W/m2
14:09 14.6 °C 7.6 °C 1008.1 hPa WNW 6.4 km/h 8 km/h 63% 0.0 mm 1106 W/m2
14:14 15.1 °C 7.9 °C 1008.1 hPa East 1.4 km/h 22.5 km/h 62% 0.0 mm 1076 W/m2
14:19 15.2 °C 7.7 °C 1008.1 hPa North 16.3 km/h 16.1 km/h 61% 0.0 mm 485 W/m2
14:24 15.2 °C 7.7 °C 1008.1 hPa SSW 9.7 km/h 16.1 km/h 61% 0.0 mm 432 W/m2
14:29 15.2 °C 7.2 °C 1007.8 hPa North 13 km/h 17.7 km/h 59% 0.0 mm 993 W/m2
14:34 15.4 °C 7.2 °C 1007.8 hPa WNW 6.4 km/h 16.1 km/h 58% 0.0 mm 991 W/m2
14:39 15.6 °C 6.9 °C 1007.8 hPa WNW 7.9 km/h 14.5 km/h 56% 0.0 mm 865 W/m2
14:44 15.6 °C 7.1 °C 1007.8 hPa WNW 19.5 km/h 24.1 km/h 57% 0.0 mm 557 W/m2
14:49 15.7 °C 6.9 °C 1007.8 hPa West 3.2 km/h 24.1 km/h 56% 0.0 mm 1076 W/m2
14:54 15.9 °C 6.9 °C 1007.8 hPa NW 7.9 km/h 22.5 km/h 55% 0.0 mm 1106 W/m2
14:59 16.2 °C 7.7 °C 1008.1 hPa North 6.4 km/h 14.5 km/h 57% 0.0 mm 1039 W/m2
15:04 16.2 °C 7.4 °C 1007.8 hPa WNW 22.7 km/h 22.5 km/h 56% 0.0 mm 914 W/m2
15:09 16.1 °C 7.8 °C 1007.8 hPa NW 13 km/h 16.1 km/h 58% 0.0 mm 970 W/m2
15:14 16.3 °C 7.8 °C 1007.8 hPa West 16.3 km/h 16.1 km/h 57% 0.0 mm 1002 W/m2
15:19 16.3 °C 7.2 °C 1007.8 hPa WSW 7.9 km/h 24.1 km/h 55% 0.0 mm 946 W/m2
15:24 16.2 °C 7.4 °C 1007.5 hPa NW 7.9 km/h 8 km/h 56% 0.0 mm 195 W/m2
15:29 16.2 °C 7.9 °C 1007.5 hPa NW 1.4 km/h 19.3 km/h 58% 0.0 mm 932 W/m2
15:34 16.4 °C 7.9 °C 1007.5 hPa West 6.4 km/h 24.1 km/h 57% 0.0 mm 257 W/m2
15:39 16.1 °C 7.3 °C 1007.5 hPa East 9.7 km/h 19.3 km/h 56% 0.0 mm 253 W/m2
15:44 15.7 °C 7.2 °C 1007.1 hPa NE 3.2 km/h 11.3 km/h 57% 0.0 mm 336 W/m2
15:49 15.8 °C 7.3 °C 1007.5 hPa West 14.3 km/h 16.1 km/h 57% 0.0 mm 320 W/m2
15:54 15.8 °C 6.8 °C 1007.5 hPa WNW 4.7 km/h 20.9 km/h 55% 0.0 mm 283 W/m2
15:59 15.7 °C 6.9 °C 1007.5 hPa SW 7.9 km/h 19.3 km/h 56% 0.0 mm 262 W/m2
16:04 15.6 °C 7.1 °C 1007.5 hPa WNW 7.9 km/h 20.9 km/h 57% 0.0 mm 171 W/m2
16:09 15.5 °C 7.3 °C 1007.1 hPa NNW 4.7 km/h 9.7 km/h 58% 0.0 mm 218 W/m2
16:14 15.7 °C 7.2 °C 1007.1 hPa NE 7.9 km/h 16.1 km/h 57% 0.0 mm 239 W/m2
16:19 16.1 °C 7.3 °C 1007.1 hPa West 16.3 km/h 17.7 km/h 56% 0.0 mm 216 W/m2
16:24 16.2 °C 7.1 °C 1006.8 hPa WNW 1.4 km/h 16.1 km/h 55% 0.0 mm 816 W/m2
16:29 16.3 °C 7 °C 1007.1 hPa SW 6.4 km/h 11.3 km/h 54% 0.0 mm 214 W/m2
16:34 16.2 °C 6.6 °C 1006.8 hPa NNW 3.2 km/h 27.4 km/h 53% 0.0 mm 260 W/m2
16:39 16 °C 6.7 °C 1006.8 hPa West 6.4 km/h 17.7 km/h 54% 0.0 mm 417 W/m2
16:44 16 °C 6.4 °C 1006.8 hPa WSW 6.4 km/h 27.4 km/h 53% 0.0 mm 218 W/m2
16:49 16.2 °C 6.9 °C 1006.8 hPa WNW 1.4 km/h 11.3 km/h 54% 0.0 mm 758 W/m2
16:54 16.6 °C 7 °C 1006.4 hPa NW 14.3 km/h 14.5 km/h 53% 0.0 mm 696 W/m2
16:59 16.9 °C 7 °C 1006.4 hPa NW 13 km/h 14.5 km/h 52% 0.0 mm 700 W/m2
17:04 16.8 °C 7.2 °C 1006.4 hPa SSW 3.2 km/h 12.9 km/h 53% 0.0 mm 638 W/m2
17:09 16.7 °C 6.8 °C 1006.4 hPa NW 7.9 km/h 17.7 km/h 52% 0.0 mm 169 W/m2
17:14 16.5 °C 6.6 °C 1006.4 hPa NW 11.1 km/h 12.9 km/h 52% 0.0 mm 649 W/m2
17:19 16.7 °C 6.5 °C 1006.1 hPa WSW 3.2 km/h 24.1 km/h 51% 0.0 mm 726 W/m2
17:24 17 °C 5.9 °C 1006.4 hPa NNW 3.2 km/h 16.1 km/h 48% 0.0 mm 638 W/m2
17:29 17.2 °C 6.1 °C 1006.1 hPa West 4.7 km/h 12.9 km/h 48% 0.0 mm 663 W/m2
17:34 17 °C 5.9 °C 1006.1 hPa NW 7.9 km/h 22.5 km/h 48% 0.0 mm 234 W/m2
17:39 17 °C 5.9 °C 1005.8 hPa WSW 16.3 km/h 30.6 km/h 48% 0.0 mm 613 W/m2
17:44 17.2 °C 6.4 °C 1005.8 hPa WNW 6.4 km/h 16.1 km/h 49% 0.0 mm 487 W/m2
17:49 17.3 °C 6.5 °C 1005.8 hPa West 4.7 km/h 25.7 km/h 49% 0.0 mm 570 W/m2
17:54 17.3 °C 6.5 °C 1005.8 hPa NW 4.7 km/h 20.9 km/h 49% 0.0 mm 608 W/m2
17:59 17.2 °C 6.4 °C 1005.8 hPa West 6.4 km/h 17.7 km/h 49% 0.0 mm 547 W/m2
18:04 17.1 °C 6.6 °C 1005.8 hPa NW 4.7 km/h 14.5 km/h 50% 0.0 mm 169 W/m2
18:09 16.9 °C 6.7 °C 1005.4 hPa NE 3.2 km/h 14.5 km/h 51% 0.0 mm 510 W/m2
18:14 17.1 °C 6.9 °C 1005.4 hPa WSW 1.4 km/h 11.3 km/h 51% 0.0 mm 471 W/m2
18:19 17.1 °C 6.9 °C 1005.4 hPa North 6.4 km/h 14.5 km/h 51% 0.0 mm 464 W/m2
18:24 17 °C 6.5 °C 1005.4 hPa West 4.7 km/h 20.9 km/h 50% 0.0 mm 441 W/m2
18:29 17.1 °C 7.4 °C 1005.1 hPa WNW 6.4 km/h 12.9 km/h 53% 0.0 mm 353 W/m2
18:34 17.1 °C 6.9 °C 1005.4 hPa North 6.4 km/h 19.3 km/h 51% 0.0 mm 397 W/m2
18:39 17 °C 7.1 °C 1005.1 hPa NW 9.7 km/h 11.3 km/h 52% 0.0 mm 360 W/m2
18:44 17 °C 7.1 °C 1005.1 hPa NW 9.7 km/h 16.1 km/h 52% 0.0 mm 338 W/m2
18:49 16.9 °C 7 °C 1005.1 hPa NW 7.9 km/h 17.7 km/h 52% 0.0 mm 258 W/m2
18:54 16.6 °C 6.7 °C 1004.7 hPa NNW 4.7 km/h 11.3 km/h 52% 0.0 mm 83 W/m2
18:59 16.3 °C 6.7 °C 1004.7 hPa NNW 3.2 km/h 16.1 km/h 53% 0.0 mm 116 W/m2
19:04 16.3 °C 7 °C 1004.7 hPa WSW 17.7 km/h 17.7 km/h 54% 0.0 mm 313 W/m2
19:09 16.3 °C 7.2 °C 1004.7 hPa North 4.7 km/h 8 km/h 55% 0.0 mm 243 W/m2
19:14 16.3 °C 7.2 °C 1004.7 hPa East 3.2 km/h 9.7 km/h 55% 0.0 mm 155 W/m2
19:19 16.2 °C 7.4 °C 1004.7 hPa WSW 3.2 km/h 16.1 km/h 56% 0.0 mm 121 W/m2
19:24 16.1 °C 7.6 °C 1004.4 hPa SSW 9.7 km/h 12.9 km/h 57% 0.0 mm 130 W/m2
19:29 16 °C 7.5 °C 1004.4 hPa WNW 6.4 km/h 9.7 km/h 57% 0.0 mm 100 W/m2
19:34 16 °C 7.5 °C 1004.4 hPa WNW 6.4 km/h 9.7 km/h 57% 0.0 mm 107 W/m2
19:39 16.1 °C 7.8 °C 1004.1 hPa NNW 6.4 km/h 12.9 km/h 58% 0.0 mm 178 W/m2
19:44 16.1 °C 7.6 °C 1004.1 hPa WNW 1.4 km/h 12.9 km/h 57% 0.0 mm 162 W/m2
19:49 16.1 °C 7.6 °C 1004.4 hPa NNW 4.7 km/h 14.5 km/h 57% 0.0 mm 183 W/m2
19:54 16.1 °C 7.6 °C 1004.1 hPa NW 1.4 km/h 6.4 km/h 57% 0.0 mm 88 W/m2
19:59 15.9 °C 7.9 °C 1004.1 hPa NW 6.4 km/h 14.5 km/h 59% 0.0 mm 49 W/m2
20:04 15.9 °C 8.1 °C 1004.1 hPa NW 6.4 km/h 8 km/h 60% 0.0 mm 127 W/m2
20:09 15.8 °C 8 °C 1004.1 hPa SSE 1.4 km/h 8 km/h 60% 0.0 mm 113 W/m2
20:14 15.8 °C 8.3 °C 1004.1 hPa West 1.4 km/h 6.4 km/h 61% 0.0 mm 121 W/m2
20:19 15.8 °C 8.5 °C 1004.1 hPa NNW 1.4 km/h 4.8 km/h 62% 0.0 mm 141 W/m2
20:24 15.8 °C 8.5 °C 1004.1 hPa NW 4.7 km/h 9.7 km/h 62% 0.0 mm 51 W/m2
20:29 15.3 °C 8.3 °C 1004.1 hPa NW 3.2 km/h 14.5 km/h 63% 0.0 mm 67 W/m2
20:34 15.2 °C 8.7 °C 1004.1 hPa NW 9.7 km/h 12.9 km/h 65% 0.0 mm 51 W/m2
20:39 14.8 °C 8.3 °C 1003.7 hPa WNW 4.7 km/h 8 km/h 65% 0.0 mm 16 W/m2
20:44 14.5 °C 8.2 °C 1003.7 hPa WNW 7.9 km/h 11.3 km/h 66% 0.0 mm 12 W/m2
20:49 14.3 °C 8.3 °C 1003.7 hPa Calm   3.2 km/h 67% 0.0 mm 12 W/m2
20:55 14.2 °C 8.4 °C 1003.7 hPa Calm   6.4 km/h 68% 0.0 mm 11 W/m2
21:00 14.1 °C 8.5 °C 1003.7 hPa North 3.2 km/h 8 km/h 69% 0.0 mm 9 W/m2
21:05 13.9 °C 8.3 °C 1003.7 hPa NW 1.4 km/h 4.8 km/h 69% 0.0 mm 7 W/m2
21:10 13.8 °C 8.4 °C 1003.7 hPa Calm   3.2 km/h 70% 0.0 mm 7 W/m2
21:15 13.7 °C 8.5 °C 1003.7 hPa NE 4.7 km/h 6.4 km/h 71% 0.0 mm 5 W/m2
21:20 13.7 °C 8.5 °C 1003.7 hPa NNE 3.2 km/h 4.8 km/h 71% 0.0 mm 0 W/m2
21:25 13.6 °C 8.4 °C 1003.7 hPa North 1.4 km/h 6.4 km/h 71% 0.0 mm 0 W/m2
21:30 13.5 °C 8.6 °C 1004.1 hPa NNE 1.4 km/h 3.2 km/h 72% 0.0 mm 0 W/m2
21:35 13.4 °C 8.5 °C 1004.1 hPa ENE 6.4 km/h 6.4 km/h 72% 0.0 mm 0 W/m2
21:40 13.4 °C 8.7 °C 1004.1 hPa NW 4.7 km/h 6.4 km/h 73% 0.0 mm 0 W/m2
21:45 13.4 °C 8.7 °C 1003.7 hPa WNW 1.4 km/h 4.8 km/h 73% 0.0 mm 0 W/m2
21:50 13.3 °C 8.8 °C 1004.1 hPa West 6.4 km/h 9.7 km/h 74% 0.0 mm 0 W/m2
21:55 13.2 °C 8.7 °C 1004.1 hPa NW 6.4 km/h 20.9 km/h 74% 0.0 mm 0 W/m2
22:00 13.1 °C 8.4 °C 1004.1 hPa North 6.4 km/h 9.7 km/h 73% 0.0 mm 0 W/m2
22:05 12.9 °C 8.4 °C 1004.1 hPa NNW 4.7 km/h 20.9 km/h 74% 0.0 mm 0 W/m2
22:10 12.8 °C 8.3 °C 1003.7 hPa NE 4.7 km/h 4.8 km/h 74% 0.0 mm 0 W/m2
22:15 12.7 °C 8.2 °C 1003.7 hPa NNE 3.2 km/h 8 km/h 74% 0.0 mm 0 W/m2
22:20 12.6 °C 8.3 °C 1004.1 hPa North 4.7 km/h 4.8 km/h 75% 0.0 mm 0 W/m2
22:25 12.5 °C 8.2 °C 1003.7 hPa West 4.7 km/h 6.4 km/h 75% 0.0 mm 0 W/m2
22:30 12.4 °C 8.3 °C 1003.7 hPa Calm   6.4 km/h 76% 0.0 mm 0 W/m2
22:35 12.4 °C 8.3 °C 1004.1 hPa West 4.7 km/h 6.4 km/h 76% 0.0 mm 0 W/m2
22:40 12.4 °C 8.5 °C 1004.1 hPa NNE 1.4 km/h 3.2 km/h 77% 0.2 mm 0 W/m2
22:45 12.3 °C 8.6 °C 1004.1 hPa Calm   3.2 km/h 78% 0.2 mm 0 W/m2
22:50 12.1 °C 8.6 °C 1004.1 hPa NE 3.2 km/h 4.8 km/h 79% 0.2 mm 0 W/m2
22:55 11.9 °C 8.7 °C 1004.1 hPa WNW 4.7 km/h 9.7 km/h 81% 0.2 mm 0 W/m2
23:00 11.8 °C 8.8 °C 1004.1 hPa WNW 13 km/h 16.1 km/h 82% 0.2 mm 0 W/m2
23:05 11.7 °C 8.7 °C 1004.7 hPa North 13 km/h 14.5 km/h 82% 0.5 mm 0 W/m2
23:10 11.5 °C 8.9 °C 1004.7 hPa NNW 9.7 km/h 14.5 km/h 84% 1.8 mm 0 W/m2
23:15 11.2 °C 8.8 °C 1004.4 hPa WNW 3.2 km/h 12.9 km/h 85% 2.5 mm 0 W/m2
23:20 10.8 °C 8.6 °C 1004.4 hPa NW 4.7 km/h 11.3 km/h 86% 2.8 mm 0 W/m2
23:25 10.7 °C 8.6 °C 1004.7 hPa West 6.4 km/h 12.9 km/h 87% 2.8 mm 0 W/m2
23:30 10.5 °C 8.6 °C 1004.7 hPa West 3.2 km/h 4.8 km/h 88% 2.8 mm 0 W/m2
23:35 10.3 °C 8.4 °C 1004.7 hPa West 4.7 km/h 12.9 km/h 88% 2.8 mm 0 W/m2
23:40 10.2 °C 8.5 °C 1004.7 hPa WSW 3.2 km/h 6.4 km/h 89% 2.5 mm 0 W/m2
23:45 10.2 °C 8.5 °C 1004.7 hPa SE 3.2 km/h 3.2 km/h 89% 2.5 mm 0 W/m2
23:50 10.1 °C 8.5 °C 1004.7 hPa Calm   3.2 km/h 90% 2.5 mm 0 W/m2
23:55 10.1 °C 8.5 °C 1004.7 hPa Calm   6.4 km/h 90% 2.5 mm 0 W/m2
Juneau County Weather
Compliments of Weather Underground - 4 mb